sat.trackr.live / text

‹ back to catalog

STARLINK-3625

NORAD 51777 · 2022-017K

PAYLOAD ACTIVE UNKNOWN

§ Identity

Operator
Country
US
Launch date
2022-02-25
Launch site
AFWTR
Launch vehicle
Mass (kg)
RCS (m²)

Purposes: comms

External: N2YO · Heavens-Above · Gunter

§ Orbital elements

Epoch: 2026-09-20T00:22:21.220032Z

Period
93.79 min
Inclination
53.1586°
Eccentricity
0.0001307
Mean motion
15.35404649 rev/d
Perigee alt
458.8 km
Apogee alt
460.6 km
Semi-major
6,837.9 km
B*
-5.6011e-5
RAAN
174.2004°
Arg perigee
101.8559°
Mean anomaly
258.2590°
Rev number
25,210

§ Raw data

STARLINK-36251 51777U 22017K   26263.01552338 -.00002334  00000+0 -56011-4 0  99952 51777  53.1586 174.2004 0001307 101.8559 258.2590 15.35404649252107

JSON: /api/v1/satellites/51777 · /tle

For live sub-satellite position, see the globe view (requires WebGL).

§ Visibility from observer

Set your observer location to see the next 7 days of passes ≥ 10°. The values pass through the URL so the page stays shareable.

No JS? Fill the form by hand. The geolocation button needs JavaScript.